Location: Algona Chiropractic Clinic
(43.0683°N, 94.2366°W)
Time: 07:56:10
(UTC+00:00)

Daily predictions for brighter satellites

Satellite Brightness Start Highest point End
(mag) Time Altitude Azimuth Time Altitude Azimuth Time Altitude Azimuth
Cosmos 1606 Rocket 3.4 12:01:00 10° SSW 12:05:27 74° W 12:09:53 10° N
STARLINK-54 3.4 12:04:12 34° WSW 12:05:51 78° NW 12:09:54 10° NE
STARLINK-28 3.2 12:05:19 48° W 12:06:02 62° NNW 12:09:34 10° NE
STARLINK-77 3.4 12:05:26 31° WSW 12:07:17 82° NW 12:11:20 10° NE
Cosmos 1726 Rocket 3.5 12:03:00 10° S 12:07:27 88° W 12:11:55 10° N
STARLINK-25 3.4 12:07:02 30° WSW 12:08:58 80° NW 12:13:00 10° NE
NOAA 6 4.0 12:04:25 10° NNE 12:09:39 90° WSW 12:14:50 10° SSW
SJ-12 4.3 12:06:28 10° N 12:10:17 39° WNW 12:14:04 10° SW
STARLINK-71 3.4 12:09:00 31° WSW 12:10:50 71° NNW 12:14:52 10° NE
Cosmos 1680 Rocket 3.7 12:05:40 10° SSW 12:10:58 76° ESE 12:16:18 10° NNE
Cosmos 972 Rocket 4.3 12:05:50 10° NNW 12:12:03 65° WSW 12:17:32 10° S
STARLINK-79 3.4 12:10:12 28° WSW 12:12:15 75° NW 12:16:18 10° NE
Cosmos 1328 3.9 12:08:35 10° N 12:12:36 79° E 12:16:34 10° S
Cosmos 2322 Rocket 3.2 12:08:01 10° S 12:13:26 48° ESE 12:18:54 10° NE
STARLINK-42 3.3 12:12:07 32° WSW 12:13:41 65° NNW 12:17:27 10° NE
STARLINK-78 3.4 12:11:52 27° WSW 12:13:58 73° NNW 12:18:00 10° NE
NOSS 3-2 (C) 4.1 12:07:19 14° NW 12:14:11 86° SW 12:22:41 10° SSE
NOSS 2-2 (C) 4.4 12:15:24 25° NW 12:15:26 25° NW 12:18:51 10° NNE
STARLINK-57 3.5 12:13:37 27° WSW 12:15:43 68° NNW 12:19:44 10° NE
STARLINK-64 3.4 12:14:51 29° WSW 12:16:36 64° NNW 12:20:24 10° NE
STARLINK-49 3.5 12:15:00 25° WSW 12:17:14 69° NNW 12:21:16 10° NE
STARLINK-27 3.5 12:16:38 24° WSW 12:18:55 67° NNW 12:22:58 10° NE
MOS 1-B 4.4 12:13:23 10° N 12:18:59 52° WNW 12:24:35 10° SW
Cosmos 1959 Rocket 4.5 12:14:06 10° N 12:20:14 89° E 12:26:24 10° S
STARLINK-74 3.5 12:18:10 23° WSW 12:20:32 66° NNW 12:24:33 10° NE
FALCON 9 DEB 4.4 12:22:27 10° NE 12:22:27 10° NE 12:22:30 10° NE
STARLINK-39 3.5 12:19:48 22° WSW 12:22:14 64° NNW 12:26:15 10° NE
Cosmos 158 Rocket 4.4 12:18:21 10° S 12:23:08 60° ESE 12:27:59 10° NNE
SMAP 4.0 12:19:12 10° NNE 12:23:45 52° E 12:28:17 10° S
STARLINK 3.5 12:21:26 22° WSW 12:23:55 62° NNW 12:27:56 10° NE
ATLAS 3B R/B 3.1 12:17:30 10° NNW 12:24:12 64° NE 12:31:04 10° SE
Cosmos 44 Rocket 4.4 12:24:27 21° W 12:25:32 23° WSW 12:29:14 10° SSW
Cosmos 2263 Rocket 2.2 12:20:01 10° NNW 12:25:42 89° WSW 12:31:22 10° SSE
STARLINK-69 3.6 12:23:19 22° WSW 12:25:45 56° NNW 12:29:43 10° NE
NOSS 3-4 (A) 3.4 12:20:48 10° SW 12:26:46 88° WNW 12:33:08 10° NE
NOSS 3-4 (C) 3.4 12:20:54 10° SW 12:26:53 89° NW 12:33:14 10° NE
STARLINK-21 3.6 12:24:38 20° WSW 12:27:14 58° NNW 12:31:14 10° NE
Cosmos 2112 Rocket 4.0 12:22:18 10° SSW 12:27:40 90° W 12:33:03 10° NNE
STARLINK-45 3.7 12:26:37 20° W 12:29:09 52° NNW 12:33:06 10° NE
USA 215 3.5 12:23:30 10° SSE 12:29:49 51° SW 12:35:14 15° WNW
Timation 1 Rocket 4.3 12:24:20 10° NNW 12:30:22 78° WSW 12:36:22 10° SSE
STARLINK-70 3.7 12:28:01 19° WSW 12:30:40 53° NNW 12:34:38 10° NE
Cosmos 2366 rocket 4.0 12:25:03 10° N 12:31:25 79° W 12:37:45 10° S
SJ-7 4.4 12:27:27 10° N 12:31:33 62° WNW 12:35:41 10° SSW
STARLINK-76 3.7 12:29:24 18° WSW 12:32:13 54° NNW 12:36:11 10° NE
H-2A R/B 2.9 12:28:49 10° NNE 12:32:45 78° E 12:36:38 10° S
Cosmos 1726 2.7 12:29:29 10° SW 12:32:49 33° WNW 12:36:11 10° N
Cosmos 2228 3.4 12:29:13 10° SSW 12:33:22 40° WNW 12:37:32 10° N
STARLINK 1027 4.4 12:30:15 10° SSW 12:33:25 40° SE 12:36:36 10° ENE
SL-4 R/B 2.0 12:31:42 22° WNW 12:33:38 47° SW 12:36:56 10° SE
STARLINK 3.7 12:31:00 17° WSW 12:33:53 52° NNW 12:37:50 10° NE
Helios 1A Rocket 2.9 12:31:11 10° N 12:35:16 60° WNW 12:39:20 10° SSW
STARLINK-32 3.8 12:32:36 17° WSW 12:35:32 51° NNW 12:39:29 10° NE
NOSS 3-2 (A) 4.4 12:29:11 13° NW 12:35:55 48° WSW 12:43:56 10° S
STARLINK 1040 3.6 12:33:39 10° SW 12:36:24 47° SE 12:39:10 10° ENE
Abrixas rocket 2.0 12:34:40 22° WNW 12:36:26 71° NNE 12:39:27 10° ESE
STARLINK-40 3.8 12:34:11 16° WSW 12:37:12 50° NNW 12:41:09 10° NE
STARLINK-44 3.8 12:35:48 15° W 12:38:53 49° NNW 12:42:48 10° NE
STARLINK 1020 4.5 12:35:28 10° SSW 12:38:53 43° SE 12:42:19 10° ENE
Cosmos 1844 Rocket 4.5 12:34:16 10° N 12:39:07 29° NE 12:43:57 10° ESE
STARLINK-37 3.9 12:37:34 15° W 12:40:38 46° NNW 12:44:33 10° NE
AQUARIUS 4.4 12:36:45 10° NNE 12:41:15 73° ESE 12:45:44 10° S
Cosmos 1300 3.9 12:37:49 10° SSE 12:41:28 46° E 12:45:09 10° NNE
STARLINK 1034 4.4 12:38:15 10° SSW 12:41:42 45° SE 12:45:09 10° ENE
STARLINK-36 3.9 12:38:58 14° W 12:42:11 46° NNW 12:46:06 10° NE
STARLINK-61 4.4 12:40:40 17° W 12:43:11 32° NNW 12:46:47 10° NE
STARLINK-68 4.0 12:40:54 14° W 12:44:04 43° NNW 12:47:55 10° NE
Cosmos 1908 3.5 12:41:05 10° SSW 12:44:51 46° WNW 12:48:38 10° N
STARLINK-63 4.0 12:42:19 13° W 12:45:36 43° NNW 12:49:29 10° NE
Cosmos 1624 Rocket 4.1 12:40:27 10° NNW 12:45:42 79° ENE 12:50:53 10° SSE
ADEOS Rocket 2.7 12:41:30 10° S 12:46:56 69° WSW 12:52:34 10° NNW
STARLINK-35 4.0 12:43:43 13° W 12:47:09 43° NNW 12:51:01 10° NE
STARLINK 1033 4.1 12:43:51 10° SW 12:47:20 51° SE 12:50:52 10° ENE
CENTAUR R/B 3.3 12:40:19 10° NW 12:48:26 72° WSW 12:57:08 10° SSE
STARLINK-51 4.0 12:45:20 12° W 12:48:50 42° NNW 12:52:41 10° NE
STARLINK-30 4.0 12:46:55 12° W 12:50:29 42° NNW 12:54:20 10° NE
Lacrosse 5 2.5 12:46:12 10° SSW 12:51:11 62° SE 12:56:13 10° NE
STARLINK-75 4.2 12:48:43 13° W 12:51:51 35° NNW 12:55:26 10° NE
STARLINK-72 4.1 12:48:32 11° W 12:52:09 41° NNW 12:55:59 10° NE
SL-16 R/B 2.2 12:46:34 10° SSW 12:52:13 72° WNW 12:57:55 10° NNE
STARLINK-50 4.1 12:50:07 11° W 12:53:49 40° NNW 12:57:38 10° NE
STARLINK-60 4.3 12:51:18 10° NW 12:54:23 34° NNE 12:57:30 10° E
Cosmos 1953 Rocket 4.4 12:51:11 10° NNW 12:55:00 28° W 12:58:45 10° SSW
STARLINK-59 4.2 12:51:53 10° W 12:55:35 38° NNW 12:59:23 10° NE
Cosmos 1703 4.0 12:52:48 10° NNW 12:56:19 31° W 12:59:48 10° SSW
Lacrosse 5 rocket 3.7 12:54:16 10° NNW 12:56:46 14° N 12:59:12 10° NE
STARLINK-56 4.2 12:53:22 10° W 12:57:09 38° NNW 13:00:57 10° NE
Cosmos 1340 Rocket 4.3 12:55:00 10° SSE 12:58:40 41° E 13:02:21 10° NNE
Starlink (trailer) 4.2 12:55:01 10° W 12:58:47 37° NNW 13:02:34 10° NE
Genesis I 3.1 12:55:39 10° NW 12:59:31 74° WSW 13:03:18 10° SSE
STARLINK-41 4.2 12:56:51 10° W 13:00:24 35° NNW 13:03:59 10° NE
STARLINK-38 4.2 12:56:42 10° W 13:00:28 37° NNW 13:04:14 10° NE
Cosmos 2056 Rocket 3.6 12:55:01 10° NNW 13:00:28 80° WSW 13:05:53 10° SSE
ALOS 3.7 12:58:25 10° NNW 13:01:20 17° WNW 13:04:14 10° WSW
ATLAS 2AS CENTAUR R/B 3.3 12:54:19 10° WSW 13:02:04 52° NW 13:09:50 10° NNE
Cosmos 2360 Rocket 2.9 12:56:31 10° S 13:02:05 61° ESE 13:07:41 10° NNE
STARLINK-65 4.2 12:58:22 10° W 13:02:06 36° NNW 13:05:52 10° NE
CZ-4B R/B 3.7 12:57:18 10° N 13:02:22 37° WNW 13:07:19 10° SW
Meteor 2-12 Rocket 4.4 12:56:28 10° NNW 13:02:34 77° W 13:08:40 10° S
Cosmos 1437 3.6 12:59:44 10° N 13:02:43 49° ENE 13:05:39 10° SSE
STARLINK-53 4.3 13:00:10 10° W 13:03:53 35° NNW 13:07:36 10° NE
Cosmos 1812 Rocket 4.0 12:59:52 10° S 13:04:10 69° E 13:08:33 10° NNE
Okean-O 3.1 13:01:31 10° NNE 13:05:57 68° ESE 13:10:20 10° S
CZ-4 R/B 3.3 13:02:03 10° NNE 13:06:00 37° E 13:09:54 10° SSE
Okean O Rocket 2.7 13:03:13 10° NNW 13:06:47 24° WNW 13:10:18 10° WSW
STARLINK 1044 3.4 13:03:55 10° SW 13:07:31 81° SE 13:11:10 10° NE
STARLINK 4.2 13:04:06 10° W 13:07:38 34° NNW 13:11:10 10° NE
STARLINK 1029 2.9 13:05:49 10° SW 13:08:56 89° SSE 13:12:05 10° NE
Cosmos 1980 Rocket 3.5 13:05:01 10° W 13:09:03 20° NW 13:13:07 10° N
Cosmos 1892 4.4 13:11:48 10° N 13:15:23 36° ENE 13:18:54 10° SE
CZ-2C R/B 4.1 13:11:00 10° SE 13:15:46 37° ENE 13:20:40 10° N
CZ-2C R/B 3.7 13:11:12 10° S 13:15:49 79° WSW 13:20:22 10° NNW
Cosmos 2184 Rocket 4.0 23:35:33 10° S 23:41:43 86° E 23:47:55 10° N
Cosmos 2219 Rocket 2.3 23:39:54 10° NNW 23:45:38 88° ENE 23:51:17 10° SSE
Cosmos 2227 Rocket 3.3 23:41:23 10° SSE 23:45:52 25° ESE 23:50:22 10° NE
Cosmos 2154 Rocket 4.1 23:43:49 10° S 23:50:01 64° E 23:56:11 10° NNE
COSMO-SKYMED 1 3.4 23:46:16 10° NNE 23:50:10 31° E 23:54:01 10° SSE
Meteor 2-1 Rocket 4.4 23:47:37 10° N 23:52:55 45° ENE 23:58:12 10° SSE
COSMOS 2428 2.9 23:47:34 10° NNW 23:53:21 84° WSW 23:59:04 10° SSE
CZ-4 R/B 2.4 23:50:16 10° SE 23:53:38 26° ENE 23:57:04 10° NNE
Cosmos 1758 Rocket 4.4 23:50:51 10° SSE 23:54:31 28° E 23:58:13 10° NNE
